Terminal Aerodrome Forecast
Issued by NWS

Home | Current Version | Previous Version | Text Only | Print | Product List | Glossary On
Versions: 1 2 3 4 5 6 7 8 9 10 11 12 13 14 15 16 17 18 19 20
000
FTUS43 KABR 181458 AAB
TAFPIR
TAF AMD
KPIR 181458Z 1815/1912 36016G21KT P6SM SKC
     FM182200 29009KT P6SM FEW250
     FM190000 28005KT P6SM FEW250
     FM190200 20004KT P6SM FEW250
     FM190700 14006KT P6SM FEW250
     FM190900 14006KT P6SM FEW250 WS020/22045KT=

USA.gov is the U.S. government's official web portal to all federal, state and local government web resources and services.